Regional Weather Roundup
Issued by NWS

Home | Current Version | Previous Version | Text Only | Print | Product List | Glossary Off
Versions: 1 2 3 4 5 6 7 8 9 10 11 12 13 14 15 16 17 18 19 20 21 22 23 24 25 26 27 28 29 30 31 32 33 34 35 36 37 38 39 40 41 42 43 44 45 46 47 48 49 50

000
ASUS43 KFSD 230802
RWRSD

WEATHER ROUNDUP FOR SOUTH DAKOTA
NATIONAL WEATHER SERVICE SIOUX FALLS SD
200 AM CST TUE JAN 23 2018

NOTE: "FAIR" INDICATES FEW OR NO CLOUDS BELOW 12,000 FEET WITH NO
SIGNIFICANT WEATHER AND/OR OBSTRUCTIONS TO VISIBILITY.


SDZ001>005-009-010-012>017-230900-
NORTHWEST AND NORTH CENTRAL SOUTH DAKOTA

CITY           SKY/WX    TMP DP  RH WIND       PRES   REMARKS
BUFFALO          N/A     29  22  75 W12       29.96F WCI  19
FAITH            N/A     29  23  78 W13       30.02S WCI  19
MOBRIDGE       FOG       21  18  88 NW6       30.01F VSB 1/2 WCI  13
$$

SDZ012>016-024>037-041>051-057-063-072>074-230900-
SOUTHWEST AND SOUTH CENTRAL SOUTH DAKOTA

CITY           SKY/WX    TMP DP  RH WIND       PRES   REMARKS
RAPID CTY ARPT CLOUDY    34  24  67 NW17      30.06R WCI  23
PIERRE         FOG       22  22 100 NW3       30.06R VSB 1/2
CUSTER         CLOUDY    25  16  68 NW7       30.00F WCI  17
ELLSWORTH AFB  CLOUDY    34  26  74 NW21      30.05  WCI  22
PHILIP         MOCLDY    20  17  88 W8        30.05F WCI  10
PINE RIDGE     CLOUDY    17  13  84 W3        30.08S
SPEARFISH      FLURRIES  30  28  93 W14G23    30.08R WCI  20
WINNER         FOG       21  19  92 W5        30.05S VSB 1/4 WCI  15
$$

SDZ004>011-016>023-039-040-230900-
NORTHEAST SOUTH DAKOTA

CITY           SKY/WX    TMP DP  RH WIND       PRES   REMARKS
ABERDEEN       CLOUDY    21  20  96 NW12      30.06R WCI   9
WATERTOWN      CLOUDY    20  19  96 NW16      29.98R WCI   6
BROOKINGS      CLOUDY    20  19  96 N17       29.98R WCI   5
SISSETON         N/A     22  19  89 N17       30.02R WCI   8
$$

SDZ017-020-022-023-036>040-048>070-230900-
SOUTHEAST SOUTH DAKOTA

CITY           SKY/WX    TMP DP  RH WIND       PRES   REMARKS
SIOUX FALLS    CLOUDY    23  21  92 N18G24    29.98R WCI   9
HURON          CLOUDY    20  19  96 NW14      30.06R WCI   7
CHAMBERLAIN    CLOUDY    22  22 100 NW7       30.07R FOG     WCI  14
MITCHELL       CLOUDY    21  20  96 NW14      30.06R WCI   8
YANKTON        MIX PCPN  22  20  92 NW24G31   30.01R FOG     WCI   5
$$

ABBREVIATIONS USED IN REMARKS
   TC - TEMPERATURE IN CELSIUS
  WCI - WIND CHILL INDEX
   HX - HEAT INDEX
  VSB - VISIBILITY




USA.gov is the U.S. government's official web portal to all federal, state and local government web resources and services.